Regional Weather Roundup
Issued by NWS

Home | Current Version | Previous Version | Text Only | Print | Product List | Glossary Off
Versions: 1 2 3 4 5 6 7 8 9 10 11 12 13 14 15 16 17 18 19 20 21 22 23 24 25 26 27 28 29 30 31 32 33 34 35 36 37 38 39 40 41 42 43 44 45 46 47 48 49 50

000
ASUS43 KBIS 171110
RWRND

NORTH DAKOTA REGIONAL WEATHER ROUNDUP
NATIONAL WEATHER SERVICE BISMARCK ND
500 AM CST FRI NOV 17 2017

NOTE: "FAIR" INDICATES FEW OR NO CLOUDS BELOW 12,000 FEET WITH NO
SIGNIFICANT WEATHER AND/OR OBSTRUCTIONS TO VISIBILITY.


NDZ001>003-009>011-017-171200-
NORTHWEST NORTH DAKOTA

CITY           SKY/WX    TMP DP  RH WIND       PRES   REMARKS
WILLISTON      CLEAR     18  11  74 N7        29.64F WCI   9
MINOT          CLOUDY    20  13  74 NW6       29.64R WCI  12
MINOT AFB      CLOUDY    18  11  74 NW7       29.62R WCI   9
$$

NDZ018>021-031>035-040>046-171200-
SOUTHWEST NORTH DAKOTA

CITY           SKY/WX    TMP DP  RH WIND       PRES   REMARKS
BISMARCK       CLOUDY    35  32  88 NW5       29.62R
DICKINSON      CLOUDY    32  24  72 NW6       29.60R
GARRISON         N/A     25  20  81 NW9       29.62R WCI  15
HETTINGER ARPT CLOUDY    32  27  81 CALM      29.64R
$$

NDZ004>008-012>016-024-026-027-054-171200-
NORTHEAST NORTH DAKOTA

CITY           SKY/WX    TMP DP  RH WIND       PRES   REMARKS
GRAND FORKS    CLOUDY    33  29  85 SW16      29.60R
GRND FRKS AFB  CLOUDY    32  28  86 SW14      29.59R
DEVILS LAKE    CLOUDY    31  24  75 NW22      29.58R WCI  18
$$

NDZ022-023-025-028>030-036>039-047>053-171200-
SOUTHEAST NORTH DAKOTA

CITY           SKY/WX    TMP DP  RH WIND       PRES   REMARKS
FARGO          CLOUDY    35  28  75 S15       29.60F
JAMESTOWN      CLOUDY    29  26  89 S6        29.59R
$$




USA.gov is the U.S. government's official web portal to all federal, state and local government web resources and services.